Location: Peebles
(55.6412°N, 3.1714°W)
Time: 16:18:19
(UTC+01:00)

Cosmos 1934 Rocket - Pass Details

Date: 01 February 2022
Orbit: 938 x 999 km, 83.0° (Epoch: 25 May)

Event Time Altitude Azimuth Distance (km) Brightness Sun altitude
Rises 18:01:35 0° 347° (NNW) 3,641 7.0 -10.5°
Reaches altitude 10° 18:04:06 10° 345° (NNW) 2,684 6.3 -10.9°
Maximum altitude 18:10:09 66° 265° (W) 1,026 4.4 -11.7°
Drops below altitude 10° 18:16:08 10° 184° (S) 2,648 6.5 -12.5°
Sets 18:18:36 0° 182° (S) 3,588 7.1 -12.9°
